TimeEDT,TemperatureF,Dew PointF,Humidity,Sea Level PressureIn,VisibilityMPH,Wind Direction,Wind SpeedMPH,Gust SpeedMPH,PrecipitationIn,Events,Conditions,WindDirDegrees,DateUTC
12:51 AM,87.1,70.0,57,30.05,10.0,WSW,10.4,-,N/A,,Partly Cloudy,240,2013-07-07 04:51:00
1:51 AM,86.0,70.0,59,30.04,10.0,WSW,15.0,-,N/A,,Partly Cloudy,250,2013-07-07 05:51:00
2:51 AM,84.9,70.0,61,30.04,10.0,WSW,10.4,-,N/A,,Clear,250,2013-07-07 06:51:00
3:51 AM,84.0,70.0,63,30.03,10.0,West,13.8,20.7,N/A,,Clear,260,2013-07-07 07:51:00
4:51 AM,84.0,70.0,63,30.03,10.0,WSW,10.4,-,N/A,,Clear,240,2013-07-07 08:51:00
5:51 AM,82.0,70.0,67,30.04,10.0,SW,6.9,-,N/A,,Scattered Clouds,230,2013-07-07 09:51:00
6:51 AM,82.0,70.0,67,30.04,10.0,SW,10.4,-,N/A,,Mostly Cloudy,230,2013-07-07 10:51:00
7:51 AM,82.9,69.1,63,30.05,10.0,SW,8.1,-,N/A,,Scattered Clouds,220,2013-07-07 11:51:00
8:51 AM,84.0,69.1,61,30.05,10.0,SSW,8.1,-,N/A,,Scattered Clouds,210,2013-07-07 12:51:00
9:51 AM,86.0,70.0,59,30.03,10.0,SW,8.1,-,N/A,,Scattered Clouds,220,2013-07-07 13:51:00
10:51 AM,89.1,69.1,52,30.02,10.0,South,6.9,-,N/A,,Mostly Cloudy,190,2013-07-07 14:51:00
11:51 AM,91.0,66.9,45,30.01,10.0,WSW,9.2,-,N/A,,Mostly Cloudy,240,2013-07-07 15:51:00
12:51 PM,93.0,68.0,44,29.99,10.0,WSW,9.2,-,N/A,,Mostly Cloudy,250,2013-07-07 16:51:00
1:51 PM,93.9,66.9,41,29.99,10.0,WSW,9.2,-,N/A,,Mostly Cloudy,240,2013-07-07 17:51:00
2:51 PM,93.0,70.0,47,29.96,10.0,South,15.0,19.6,N/A,,Mostly Cloudy,170,2013-07-07 18:51:00
3:51 PM,93.9,71.1,47,29.94,10.0,SE,12.7,21.9,N/A,,Mostly Cloudy,140,2013-07-07 19:51:00
4:51 PM,91.9,70.0,48,29.93,10.0,South,13.8,-,N/A,,Mostly Cloudy,170,2013-07-07 20:51:00
5:51 PM,95.0,66.9,40,29.92,10.0,West,10.4,20.7,N/A,,Mostly Cloudy,260,2013-07-07 21:51:00
6:51 PM,96.1,66.0,37,29.93,10.0,West,12.7,20.7,N/A,,Mostly Cloudy,270,2013-07-07 22:51:00
7:51 PM,91.9,68.0,45,29.93,10.0,West,10.4,19.6,N/A,,Mostly Cloudy,270,2013-07-07 23:51:00
8:51 PM,91.0,68.0,47,29.96,10.0,West,16.1,25.3,N/A,Thunderstorm,Thunderstorm,260,2013-07-08 00:51:00
9:51 PM,84.9,63.0,48,29.94,10.0,North,8.1,-,N/A,,Mostly Cloudy,350,2013-07-08 01:51:00
10:51 PM,86.0,63.0,46,29.95,10.0,WSW,9.2,-,N/A,,Scattered Clouds,240,2013-07-08 02:51:00
11:51 PM,82.0,62.1,51,29.98,10.0,West,12.7,-,N/A,,Scattered Clouds,270,2013-07-08 03:51:00